TimePST,TemperatureF,Dew PointF,Humidity,Sea Level PressureIn,VisibilityMPH,Wind Direction,Wind SpeedMPH,Gust SpeedMPH,PrecipitationIn,Events,Conditions,WindDirDegrees,DateUTC
12:15 AM,51.8,48.2,88,29.65,5.0,South,32.2,47.2,N/A,,Overcast,190,2014-03-06 08:15:00
12:35 AM,51.8,46.4,82,29.70,7.0,SSW,28.8,42.6,N/A,,Overcast,200,2014-03-06 08:35:00
12:55 AM,53.6,50.0,88,29.67,5.0,SSW,28.8,46.0,N/A,,Overcast,200,2014-03-06 08:55:00
1:15 AM,51.8,50.0,94,29.65,5.0,South,32.2,47.2,N/A,,Overcast,190,2014-03-06 09:15:00
1:35 AM,53.6,50.0,88,29.70,5.0,South,38.0,50.6,N/A,,Overcast,190,2014-03-06 09:35:00
1:55 AM,53.6,50.0,88,29.68,5.0,South,32.2,44.9,N/A,,Overcast,190,2014-03-06 09:55:00
2:15 AM,53.6,50.0,88,29.68,5.0,South,34.5,46.0,N/A,,Mostly Cloudy,190,2014-03-06 10:15:00
2:35 AM,53.6,48.2,82,29.67,5.0,South,28.8,44.9,N/A,,Haze,190,2014-03-06 10:35:00
2:55 AM,53.6,48.2,82,29.66,5.0,South,35.7,52.9,N/A,Rain,Light Rain,190,2014-03-06 10:55:00
3:15 AM,53.6,50.0,88,29.67,5.0,South,35.7,46.0,N/A,Rain,Rain,190,2014-03-06 11:15:00
3:35 AM,53.6,50.0,88,29.67,5.0,South,35.7,44.9,N/A,,Overcast,190,2014-03-06 11:35:00
3:55 AM,53.6,50.0,88,29.67,5.0,South,33.4,47.2,N/A,,Overcast,190,2014-03-06 11:55:00
4:15 AM,53.6,50.0,88,29.67,5.0,South,34.5,44.9,N/A,,Overcast,190,2014-03-06 12:15:00
4:35 AM,51.8,50.0,94,29.62,4.0,South,31.1,42.6,0.02,Rain,Light Rain,190,2014-03-06 12:35:00
4:55 AM,51.8,50.0,94,29.61,4.0,South,32.2,46.0,0.02,Rain,Rain,190,2014-03-06 12:55:00
5:15 AM,51.8,50.0,94,29.60,4.0,South,32.2,42.6,N/A,,Overcast,190,2014-03-06 13:15:00
5:35 AM,51.8,50.0,94,29.63,5.0,South,32.2,48.3,N/A,,Overcast,190,2014-03-06 13:35:00
5:55 AM,51.8,50.0,94,29.60,4.0,South,35.7,48.3,N/A,Rain,Rain,190,2014-03-06 13:55:00
6:15 AM,51.8,50.0,94,29.59,4.0,South,35.7,54.1,N/A,Rain,Light Rain,190,2014-03-06 14:15:00
6:35 AM,51.8,50.0,94,29.57,3.0,South,39.1,55.2,0.02,Rain,Rain,190,2014-03-06 14:35:00
6:55 AM,51.8,50.0,94,29.58,3.0,South,34.5,51.8,0.06,Rain,Rain,190,2014-03-06 14:55:00
7:15 AM,51.8,50.0,94,29.57,1.8,South,36.8,57.5,0.04,Rain,Rain,190,2014-03-06 15:15:00
7:35 AM,50.0,50.0,100,29.59,1.2,SSW,36.8,52.9,0.08,Rain,Rain,200,2014-03-06 15:35:00
7:55 AM,50.0,48.2,94,29.62,2.5,SW,24.2,44.9,0.08,Rain,Light Rain,220,2014-03-06 15:55:00
8:15 AM,50.0,48.2,94,29.66,4.0,SW,21.9,29.9,N/A,,Light Drizzle,230,2014-03-06 16:15:00
8:35 AM,50.0,48.2,94,29.69,4.0,SW,25.3,32.2,N/A,,Light Drizzle,220,2014-03-06 16:35:00
8:55 AM,50.0,48.2,94,29.72,3.0,SW,21.9,34.5,N/A,Rain,Rain,220,2014-03-06 16:55:00
9:15 AM,50.0,48.2,94,29.75,2.5,SW,23.0,33.4,0.02,Rain,Light Rain,220,2014-03-06 17:15:00
9:35 AM,50.0,46.4,87,29.77,3.0,SW,21.9,31.1,0.03,Rain,Rain,230,2014-03-06 17:35:00
9:55 AM,50.0,46.4,87,29.79,3.0,SW,19.6,29.9,0.04,,Drizzle,230,2014-03-06 17:55:00
10:15 AM,50.0,46.4,87,29.81,3.0,SW,18.4,28.8,0.01,,Drizzle,230,2014-03-06 18:15:00
10:35 AM,50.0,48.2,94,29.83,3.0,SW,19.6,26.5,0.02,Rain,Light Rain,220,2014-03-06 18:35:00
10:55 AM,50.0,48.2,94,29.85,3.0,SW,17.3,-,0.02,,Drizzle,220,2014-03-06 18:55:00
11:15 AM,50.0,50.0,100,29.86,3.0,SSW,15.0,-,N/A,Rain,Light Rain,200,2014-03-06 19:15:00
11:35 AM,50.0,50.0,100,29.87,4.0,SSW,19.6,24.2,0.01,,Overcast,210,2014-03-06 19:35:00
11:55 AM,50.0,48.2,94,29.87,4.0,SW,18.4,23.0,0.01,,Overcast,220,2014-03-06 19:55:00
12:15 PM,50.0,50.0,100,29.90,4.0,SSW,17.3,23.0,N/A,,Overcast,210,2014-03-06 20:15:00
12:35 PM,51.8,50.0,94,29.93,3.0,SW,19.6,26.5,N/A,,Overcast,220,2014-03-06 20:35:00
12:55 PM,51.8,50.0,94,29.99,3.0,SSW,20.7,26.5,N/A,,Overcast,210,2014-03-06 20:55:00
1:15 PM,51.8,50.0,94,29.97,3.0,SSW,20.7,26.5,N/A,,Overcast,210,2014-03-06 21:15:00
1:35 PM,51.8,50.0,94,29.98,3.0,SSW,20.7,26.5,N/A,,Overcast,210,2014-03-06 21:35:00
1:55 PM,51.8,50.0,94,29.99,4.0,SSW,16.1,-,N/A,,Overcast,210,2014-03-06 21:55:00
2:15 PM,51.8,50.0,94,30.00,4.0,SSW,16.1,23.0,N/A,,Overcast,210,2014-03-06 22:15:00
2:35 PM,51.8,50.0,94,30.01,4.0,SW,17.3,23.0,N/A,,Overcast,220,2014-03-06 22:35:00
2:55 PM,51.8,48.2,88,30.02,4.0,SSW,17.3,23.0,N/A,,Overcast,210,2014-03-06 22:55:00
3:20 PM,51.8,50.0,94,30.03,4.0,SSW,20.7,25.3,N/A,,Overcast,210,2014-03-06 23:20:00
3:35 PM,51.8,50.0,94,30.04,3.0,SW,17.3,25.3,N/A,,Overcast,220,2014-03-06 23:35:00
3:55 PM,51.8,50.0,94,30.05,3.0,SSW,17.3,21.9,N/A,,Overcast,210,2014-03-06 23:55:00
4:15 PM,51.8,50.0,94,30.06,3.0,SW,17.3,21.9,N/A,,Overcast,220,2014-03-07 00:15:00
4:35 PM,51.8,50.0,94,30.06,3.0,SSW,17.3,25.3,N/A,,Overcast,210,2014-03-07 00:35:00
4:55 PM,51.8,50.0,94,30.07,3.0,SSW,17.3,21.9,N/A,,Overcast,210,2014-03-07 00:55:00
5:15 PM,51.8,50.0,94,30.08,3.0,SSW,17.3,24.2,N/A,,Overcast,210,2014-03-07 01:15:00
5:35 PM,50.0,50.0,100,30.08,1.5,SW,13.8,23.0,N/A,Rain,Heavy Rain,220,2014-03-07 01:35:00
5:55 PM,50.0,50.0,100,30.07,2.5,SW,12.7,17.3,N/A,,Overcast,220,2014-03-07 01:55:00
6:15 PM,50.0,50.0,100,30.10,3.0,SW,15.0,-,N/A,,Overcast,220,2014-03-07 02:15:00
6:35 PM,50.0,50.0,100,30.10,4.0,SSW,17.3,-,N/A,,Overcast,210,2014-03-07 02:35:00
6:55 PM,50.0,50.0,100,30.10,4.0,SSW,15.0,-,N/A,,Overcast,210,2014-03-07 02:55:00
7:15 PM,50.0,50.0,100,30.10,4.0,SSW,16.1,20.7,N/A,,Overcast,210,2014-03-07 03:15:00
7:35 PM,50.0,50.0,100,30.09,4.0,SSW,15.0,-,N/A,,Overcast,210,2014-03-07 03:35:00
7:55 PM,50.0,50.0,100,30.11,3.0,SSW,12.7,-,N/A,Rain,Rain,210,2014-03-07 03:55:00
8:15 PM,50.0,50.0,100,30.11,4.0,SSW,11.5,-,N/A,,Overcast,210,2014-03-07 04:15:00
8:35 PM,50.0,48.2,94,30.12,2.5,SW,11.5,-,0.04,Rain,Heavy Rain,220,2014-03-07 04:35:00
8:55 PM,50.0,48.2,94,30.12,3.0,WSW,8.1,-,0.06,,Drizzle,240,2014-03-07 04:55:00
9:15 PM,50.0,50.0,100,30.14,3.0,SSW,12.7,-,0.02,Rain,Light Rain,210,2014-03-07 05:15:00
9:35 PM,50.0,50.0,100,30.14,2.5,SSW,11.5,18.4,0.03,,Heavy Drizzle,200,2014-03-07 05:35:00
9:55 PM,50.0,50.0,100,30.15,3.0,SSW,12.7,-,0.03,,Overcast,200,2014-03-07 05:55:00
10:15 PM,50.0,50.0,100,30.14,4.0,SSW,12.7,16.1,N/A,,Overcast,200,2014-03-07 06:15:00
10:35 PM,50.0,50.0,100,30.15,3.0,SSW,10.4,-,N/A,,Overcast,200,2014-03-07 06:35:00
10:55 PM,50.0,50.0,100,30.16,4.0,SSW,11.5,-,N/A,,Overcast,210,2014-03-07 06:55:00
11:15 PM,50.0,50.0,100,30.16,4.0,SSW,11.5,-,N/A,,Overcast,200,2014-03-07 07:15:00
11:35 PM,50.0,50.0,100,30.16,4.0,SSW,10.4,-,N/A,,Overcast,210,2014-03-07 07:35:00
11:55 PM,50.0,50.0,100,30.17,4.0,SSW,11.5,-,N/A,,Overcast,200,2014-03-07 07:55:00